This is the latest recevied weather packets stored in our database for station/object K1BWE-1. If no packets are shown the sender has not sent any weather packets the latest 10 day(s).
| Time | Temp. | Humidity | Pressure | Rain* | Wind** | Luminosity | Snow |
|---|---|---|---|---|---|---|---|
| 1778145932 | 12.78° C | 53% | 1016.6 hPa | 0 mm | - | 0 W/m² | - |
| 1778145629 | 13.89° C | 53% | 1017 hPa | 0 mm | - | 0 W/m² | - |
| 1778145326 | 13.89° C | 46% | 1017 hPa | 0 mm | - | 0 W/m² | - |
| 1778145022 | 13.89° C | 44% | 1016.5 hPa | 0 mm | - | 0 W/m² | - |
| 1778144718 | 13.89° C | 47% | 1016.8 hPa | 0 mm | - | 0 W/m² | - |
| 1778144415 | 13.33° C | 47% | 1016.8 hPa | 0 mm | - | 0 W/m² | - |
| 1778144112 | 13.33° C | 48% | 1017 hPa | 0 mm | - | 0 W/m² | - |
| 1778143808 | 13.89° C | 48% | 1016.8 hPa | 0 mm | - | 0 W/m² | - |
| 1778143505 | 14.44° C | 49% | 1017 hPa | 0 mm | - | 0 W/m² | - |
| 1778143202 | 14.44° C | 42% | 1017 hPa | 0 mm | - | 0 W/m² | - |
| 1778142898 | 14.44° C | 41% | 1016.8 hPa | 0 mm | - | 0 W/m² | - |
| 1778142595 | 13.89° C | 42% | 1017 hPa | 0 mm | - | 0 W/m² | - |
| 1778142291 | 12.78° C | 47% | 1017.2 hPa | 0 mm | - | 0 W/m² | - |
| 1778141987 | 12.78° C | 49% | 1017.1 hPa | 0 mm | - | 0 W/m² | - |
| 1778141683 | 12.78° C | 51% | 1016.7 hPa | 0 mm | - | 0 W/m² | - |
| 1778141380 | 12.78° C | 55% | 1016.8 hPa | 0 mm | - | 0 W/m² | - |
| 1778141071 | 12.78° C | 54% | 1017.1 hPa | 0 mm | - | 0 W/m² | - |
| 1778140766 | 12.78° C | 56% | 1017.3 hPa | 0 mm | - | 0 W/m² | - |
| 1778140463 | 13.33° C | 57% | 1017.1 hPa | 0 mm | - | 0 W/m² | - |
| 1778140160 | 13.33° C | 54% | 1016.8 hPa | 0 mm | - | 0 W/m² | - |
| 1778139857 | 13.89° C | 55% | 1017.1 hPa | 0 mm | - | 0 W/m² | - |
| 1778139555 | 13.33° C | 49% | 1017.2 hPa | 0 mm | - | 0 W/m² | - |
| 1778139251 | 12.78° C | 49% | 1017.1 hPa | 0 mm | - | 0 W/m² | - |
| 1778138948 | 12.78° C | 51% | 1017 hPa | 0 mm | - | 0 W/m² | - |
| 1778138645 | 12.78° C | 53% | 1017.2 hPa | 0 mm | - | 0 W/m² | - |
* Rain latest hour (hover to see other rain measurements)
** Current wind speed in m/s (hover to see current wind gust speed)